QPF
0.01 0.02 0.03 0.03 0.03 0.03 0.06 0.09 0.07 0.06 0.03 0.02 0.01 0.02 0.01 0.01 0.02 0.02 0.02 0.04 0.03 0.03 0.04 0.06 0.08 0.06 0.06 0.05 0.06 0.07 0.08 0.11 0.12 0.11 0.09 0.10 0.10 0.10 0.11 0.14 0.18 0.22 0.22 0.14 0.08 0.06 0.06 0.07 0.07
0.02 0.02 0.03 0.02 0.02 0.05 0.10 0.06 0.03 0.02 0.01 0.01 0.01 0.01 0.01 0.01 0.02 0.02 0.03 0.03 0.03 0.02 0.03 0.04 0.07 0.06 0.07 0.07 0.07 0.08 0.06 0.07 0.11 0.12 0.11 0.13 0.10 0.09 0.10 0.10 0.13 0.13 0.13 0.12 0.09 0.05 0.06 0.06 0.05
0.02 0.02 0.03 0.02 0.04 0.07 0.06 0.04 0.03 0.01 0.01 0.01 0.01 0.00 0.01 0.01 0.01 0.02 0.02 0.02 0.02 0.01 0.02 0.05 0.07 0.06 0.07 0.04 0.04 0.06 0.06 0.06 0.09 0.10 0.11 0.13 0.11 0.09 0.09 0.09 0.08 0.09 0.08 0.09 0.10 0.07 0.06 0.06 0.05
0.02 0.02 0.02 0.02 0.04 0.03 0.02 0.02 0.02 0.01 0.01 0.00 0.00 0.01 0.01 0.03 0.03 0.03 0.03 0.03 0.02 0.01 0.03 0.05 0.07 0.06 0.07 0.05 0.05 0.06 0.09 0.08 0.07 0.07 0.09 0.11 0.12 0.10 0.09 0.08 0.08 0.09 0.08 0.09 0.11 0.08 0.06 0.05 0.04
0.02 0.02 0.02 0.04 0.04 0.02 0.01 0.01 0.01 0.01 0.00 0.00 0.00 0.01 0.01 0.04 0.04 0.03 0.03 0.02 0.01 0.02 0.04 0.04 0.06 0.06 0.06 0.07 0.05 0.06 0.07 0.08 0.07 0.08 0.07 0.09 0.13 0.12 0.11 0.09 0.08 0.08 0.09 0.09 0.10 0.07 0.06 0.05 0.05
0.01 0.02 0.03 0.03 0.02 0.02 0.02 0.01 0.00 0.00 0.00 0.00 0.00 0.01 0.02 0.04 0.04 0.04 0.02 0.02 0.02 0.01 0.03 0.04 0.07 0.06 0.05 0.05 0.05 0.04 0.05 0.06 0.09 0.10 0.09 0.10 0.13 0.13 0.13 0.11 0.10 0.09 0.09 0.09 0.08 0.06 0.06 0.04 0.03
0.01 0.01 0.01 0.02 0.02 0.01 0.02 0.01 0.01 0.01 0.01 0.00 0.00 0.00 0.02 0.03 0.03 0.02 0.01 0.02 0.02 0.02 0.02 0.03 0.06 0.07 0.06 0.05 0.03 0.04 0.05 0.06 0.08 0.10 0.10 0.12 0.16 0.18 0.17 0.13 0.12 0.10 0.09 0.09 0.08 0.06 0.06 0.05 0.04
0.01 0.01 0.00 0.01 0.01 0.01 0.01 0.01 0.01 0.01 0.01 0.01 0.01 0.01 0.01 0.01 0.02 0.01 0.01 0.01 0.01 0.01 0.02 0.02 0.04 0.07 0.06 0.06 0.05 0.04 0.04 0.04 0.06 0.09 0.12 0.17 0.19 0.18 0.19 0.14 0.13 0.11 0.11 0.10 0.09 0.07 0.06 0.06 0.05
0.01 0.01 0.00 0.00 0.00 0.01 0.01 0.01 0.00 0.00 0.00 0.00 0.01 0.01 0.02 0.02 0.01 0.01 0.01 0.01 0.01 0.02 0.04 0.04 0.02 0.06 0.09 0.09 0.08 0.07 0.06 0.05 0.05 0.07 0.12 0.16 0.13 0.11 0.14 0.13 0.12 0.13 0.13 0.10 0.08 0.05 0.07 0.07 0.07
0.01 0.00 0.00 0.00 0.00 0.00 0.00 0.00 0.00 0.00 0.00 0.00 0.01 0.01 0.01 0.02 0.01 0.00 0.00 0.00 0.01 0.01 0.01 0.01 0.01 0.02 0.03 0.05 0.06 0.05 0.06 0.05 0.04 0.05 0.08 0.08 0.11 0.08 0.10 0.13 0.14 0.15 0.14 0.11 0.10 0.09 0.09 0.06 0.04
0.00 0.00 0.00 0.00 0.00 0.00 0.00 0.00 0.00 0.00 0.00 0.00 0.00 0.00 0.01 0.01 0.01 0.00 0.01 0.01 0.02 0.01 0.01 0.01 0.01 0.01 0.01 0.02 0.02 0.02 0.04 0.04 0.03 0.04 0.04 0.07 0.12 0.09 0.09 0.11 0.14 0.18 0.16 0.09 0.09 0.10 0.06 0.03 0.02
0.00 0.00 0.00 0.00 0.00 0.00 0.00 0.00 0.00 0.00 0.00 0.00 0.00 0.00 0.01 0.01 0.00 0.00 0.01 0.02 0.02 0.01 0.00 0.01 0.01 0.01 0.01 0.01 0.01 0.02 0.02 0.02 0.02 0.02 0.02 0.06 0.11 0.08 0.08 0.09 0.10 0.14 0.12 0.07 0.05 0.04 0.04 0.03 0.03
0.00 0.00 0.00 0.00 0.00 0.00 0.00 0.00 0.00 0.00 0.00 0.01 0.00 0.00 0.01 0.01 0.00 0.01 0.01 0.01 0.01 0.01 0.02 0.01 0.00 0.02 0.02 0.02 0.01 0.02 0.03 0.03 0.02 0.02 0.04 0.06 0.09 0.07 0.07 0.07 0.07 0.08 0.10 0.10 0.06 0.05 0.06 0.06 0.05
0.00 0.00 0.00 0.00 0.00 0.00 0.00 0.00 0.00 0.00 0.00 0.00 0.00 0.00 0.01 0.01 0.00 0.01 0.01 0.01 0.01 0.01 0.02 0.02 0.01 0.02 0.03 0.03 0.02 0.02 0.04 0.05 0.05 0.04 0.05 0.07 0.09 0.08 0.08 0.08 0.07 0.06 0.07 0.06 0.05 0.05 0.05 0.05 0.06
0.00 0.00 0.00 0.01 0.00 0.01 0.00 0.00 0.00 0.00 0.00 0.00 0.00 0.01 0.02 0.03 0.02 0.02 0.02 0.02 0.01 0.01 0.01 0.01 0.04 0.06 0.07 0.04 0.04 0.04 0.04 0.05 0.04 0.03 0.04 0.08 0.11 0.09 0.10 0.09 0.08 0.06 0.05 0.04 0.04 0.03 0.04 0.05 0.05
0.00 0.00 0.01 0.01 0.00 0.01 0.00 0.00 0.00 0.00 0.00 0.00 0.00 0.02 0.03 0.04 0.05 0.03 0.02 0.02 0.01 0.01 0.01 0.02 0.07 0.07 0.07 0.04 0.04 0.04 0.04 0.04 0.03 0.04 0.06 0.09 0.10 0.07 0.08 0.09 0.09 0.07 0.05 0.06 0.04 0.04 0.05 0.05 0.06
0.00 0.00 0.01 0.01 0.00 0.01 0.00 0.00 0.00 0.00 0.00 0.00 0.00 0.01 0.02 0.03 0.03 0.02 0.02 0.02 0.02 0.02 0.02 0.02 0.06 0.05 0.03 0.03 0.04 0.04 0.05 0.04 0.03 0.05 0.05 0.09 0.09 0.06 0.06 0.08 0.09 0.08 0.07 0.06 0.04 0.04 0.06 0.06 0.06
0.00 0.00 0.00 0.01 0.01 0.01 0.01 0.00 0.00 0.00 0.00 0.00 0.00 0.00 0.01 0.02 0.02 0.02 0.03 0.03 0.04 0.04 0.03 0.03 0.04 0.04 0.03 0.02 0.03 0.04 0.05 0.05 0.03 0.03 0.04 0.06 0.06 0.07 0.07 0.07 0.10 0.10 0.08 0.05 0.05 0.06 0.07 0.07 0.07
0.00 0.00 0.00 0.00 0.01 0.01 0.01 0.00 0.00 0.00 0.00 0.00 0.00 0.00 0.01 0.01 0.01 0.03 0.04 0.04 0.07 0.07 0.05 0.03 0.03 0.03 0.03 0.02 0.03 0.03 0.04 0.04 0.03 0.02 0.04 0.04 0.04 0.04 0.05 0.09 0.10 0.09 0.08 0.06 0.06 0.07 0.06 0.05 0.05
0.00 0.00 0.00 0.00 0.00 0.01 0.01 0.01 0.00 0.00 0.00 0.00 0.00 0.01 0.01 0.01 0.02 0.03 0.04 0.07 0.08 0.08 0.06 0.03 0.03 0.03 0.03 0.03 0.03 0.03 0.04 0.04 0.04 0.03 0.06 0.05 0.04 0.03 0.04 0.07 0.08 0.07 0.07 0.05 0.06 0.06 0.04 0.03 0.05
0.01 0.00 0.00 0.00 0.00 0.01 0.01 0.01 0.01 0.00 0.00 0.01 0.01 0.01 0.01 0.01 0.02 0.02 0.05 0.10 0.06 0.07 0.04 0.02 0.03 0.03 0.04 0.06 0.05 0.05 0.05 0.05 0.05 0.05 0.07 0.08 0.06 0.05 0.05 0.05 0.07 0.09 0.10 0.07 0.07 0.08 0.05 0.04 0.06
0.00 0.00 0.00 0.00 0.00 0.01 0.01 0.00 0.00 0.01 0.01 0.01 0.01 0.01 0.01 0.01 0.01 0.02 0.05 0.08 0.06 0.03 0.02 0.02 0.02 0.03 0.05 0.09 0.09 0.07 0.06 0.05 0.05 0.06 0.08 0.10 0.10 0.08 0.07 0.08 0.10 0.10 0.10 0.09 0.08 0.09 0.07 0.07 0.07
0.00 0.01 0.01 0.00 0.00 0.00 0.00 0.00 0.00 0.00 0.01 0.01 0.01 0.01 0.01 0.01 0.01 0.01 0.03 0.05 0.05 0.02 0.02 0.02 0.02 0.03 0.04 0.05 0.06 0.05 0.04 0.04 0.04 0.04 0.07 0.09 0.11 0.11 0.11 0.11 0.10 0.08 0.08 0.09 0.09 0.12 0.11 0.14 0.06
0.00 0.00 0.01 0.01 0.00 0.00 0.00 0.00 0.00 0.00 0.01 0.01 0.01 0.01 0.01 0.02 0.01 0.01 0.02 0.03 0.02 0.01 0.01 0.01 0.01 0.01 0.02 0.02 0.02 0.03 0.03 0.03 0.03 0.03 0.03 0.05 0.08 0.10 0.11 0.11 0.08 0.06 0.05 0.05 0.08 0.11 0.12 0.11 0.04
0.00 0.01 0.01 0.01 0.00 0.00 0.00 0.00 0.00 0.00 0.01 0.01 0.01 0.01 0.01 0.01 0.01 0.01 0.01 0.02 0.01 0.01 0.01 0.01 0.01 0.01 0.02 0.02 0.02 0.02 0.02 0.02 0.02 0.03 0.03 0.04 0.05 0.05 0.06 0.07 0.06 0.05 0.05 0.06 0.07 0.08 0.08 0.05 0.04
0.00 0.01 0.01 0.01 0.00 0.00 0.00 0.00 0.00 0.00 0.01 0.01 0.01 0.00 0.00 0.01 0.01 0.01 0.01 0.01 0.01 0.01 0.01 0.01 0.01 0.01 0.01 0.03 0.03 0.02 0.02 0.02 0.03 0.02 0.01 0.02 0.02 0.03 0.04 0.03 0.03 0.03 0.03 0.04 0.05 0.06 0.05 0.04 0.04
0.00 0.01 0.01 0.01 0.01 0.00 0.00 0.01 0.01 0.01 0.01 0.01 0.01 0.00 0.01 0.01 0.01 0.01 0.01 0.01 0.01 0.01 0.01 0.01 0.01 0.02 0.02 0.03 0.04 0.02 0.01 0.02 0.03 0.02 0.01 0.01 0.02 0.02 0.02 0.01 0.01 0.01 0.01 0.02 0.03 0.05 0.04 0.03 0.03
0.00 0.00 0.01 0.00 0.00 0.00 0.00 0.01 0.01 0.01 0.02 0.02 0.01 0.01 0.01 0.01 0.01 0.01 0.01 0.00 0.00 0.01 0.02 0.01 0.02 0.03 0.03 0.04 0.04 0.03 0.02 0.03 0.03 0.02 0.01 0.02 0.02 0.02 0.01 0.01 0.00 0.00 0.00 0.00 0.01 0.02 0.02 0.03 0.03
0.00 0.00 0.00 0.01 0.00 0.00 0.00 0.00 0.00 0.00 0.01 0.01 0.01 0.01 0.01 0.00 0.01 0.00 0.01 0.01 0.01 0.01 0.01 0.02 0.02 0.03 0.04 0.04 0.04 0.03 0.04 0.04 0.03 0.02 0.02 0.02 0.02 0.01 0.01 0.01 0.01 0.00 0.00 0.00 0.01 0.01 0.01 0.02 0.02
0.00 0.00 0.00 0.01 0.01 0.00 0.00 0.00 0.00 0.00 0.01 0.01 0.01 0.01 0.01 0.01 0.01 0.00 0.01 0.01 0.01 0.01 0.01 0.02 0.02 0.03 0.05 0.04 0.04 0.04 0.05 0.04 0.04 0.03 0.03 0.03 0.01 0.01 0.01 0.01 0.00 0.00 0.01 0.01 0.02 0.02 0.02 0.02 0.02
MSLP
1005.98 1006.87 1007.89 1008.92 1009.85 1010.58 1011.05 1011.28 1011.29 1011.17 1011.03 1010.94 1010.97 1011.12 1011.36 1011.62 1011.84 1011.94 1011.90 1011.72 1011.43 1011.11 1010.82 1010.62 1010.56 1010.62 1010.79 1011.02 1011.28 1011.52 1011.73 1011.93 1012.11 1012.31 1012.55 1012.82 1013.11 1013.39 1013.65 1013.86 1014.00 1014.09 1014.14 1014.18 1014.23 1014.30 1014.41 1014.53 1014.65
1006.33 1007.35 1008.42 1009.44 1010.28 1010.86 1011.16 1011.20 1011.05 1010.80 1010.56 1010.42 1010.42 1010.57 1010.83 1011.12 1011.37 1011.51 1011.51 1011.38 1011.17 1010.94 1010.74 1010.65 1010.68 1010.83 1011.07 1011.35 1011.63 1011.89 1012.10 1012.28 1012.44 1012.62 1012.83 1013.07 1013.33 1013.58 1013.82 1014.00 1014.12 1014.20 1014.25 1014.30 1014.35 1014.44 1014.55 1014.68 1014.81
1006.81 1007.90 1008.97 1009.91 1010.62 1011.03 1011.15 1011.01 1010.71 1010.36 1010.06 1009.90 1009.91 1010.09 1010.37 1010.69 1010.96 1011.13 1011.17 1011.10 1010.95 1010.80 1010.70 1010.71 1010.84 1011.07 1011.37 1011.70 1012.01 1012.26 1012.47 1012.62 1012.76 1012.91 1013.09 1013.29 1013.51 1013.73 1013.93 1014.09 1014.21 1014.29 1014.35 1014.41 1014.49 1014.60 1014.73 1014.88 1015.02
1007.39 1008.49 1009.51 1010.32 1010.86 1011.09 1011.02 1010.74 1010.34 1009.94 1009.63 1009.49 1009.53 1009.74 1010.06 1010.41 1010.70 1010.89 1010.96 1010.93 1010.84 1010.77 1010.76 1010.85 1011.05 1011.35 1011.70 1012.05 1012.36 1012.61 1012.79 1012.93 1013.04 1013.16 1013.31 1013.48 1013.67 1013.86 1014.04 1014.18 1014.29 1014.38 1014.45 1014.54 1014.65 1014.79 1014.95 1015.12 1015.28
1008.01 1009.06 1009.96 1010.61 1010.96 1011.02 1010.81 1010.43 1009.98 1009.57 1009.30 1009.22 1009.32 1009.59 1009.94 1010.31 1010.61 1010.82 1010.91 1010.91 1010.88 1010.86 1010.92 1011.07 1011.32 1011.65 1012.01 1012.36 1012.65 1012.88 1013.05 1013.16 1013.26 1013.37 1013.50 1013.66 1013.83 1014.01 1014.16 1014.29 1014.39 1014.48 1014.57 1014.69 1014.82 1014.99 1015.18 1015.38 1015.56
1008.57 1009.51 1010.25 1010.71 1010.89 1010.79 1010.49 1010.06 1009.62 1009.27 1009.08 1009.08 1009.27 1009.59 1009.98 1010.36 1010.68 1010.89 1010.99 1011.03 1011.03 1011.07 1011.17 1011.36 1011.63 1011.96 1012.30 1012.62 1012.88 1013.07 1013.22 1013.32 1013.42 1013.53 1013.67 1013.83 1014.01 1014.18 1014.32 1014.44 1014.53 1014.61 1014.71 1014.83 1014.99 1015.18 1015.39 1015.61 1015.79
1008.94 1009.73 1010.28 1010.57 1010.58 1010.38 1010.03 1009.62 1009.25 1009.00 1008.92 1009.03 1009.30 1009.68 1010.10 1010.49 1010.81 1011.02 1011.14 1011.21 1011.25 1011.32 1011.46 1011.67 1011.94 1012.24 1012.54 1012.81 1013.02 1013.19 1013.31 1013.42 1013.53 1013.67 1013.84 1014.03 1014.21 1014.38 1014.52 1014.61 1014.69 1014.75 1014.84 1014.96 1015.12 1015.33 1015.55 1015.77 1015.97
1009.04 1009.65 1010.01 1010.13 1010.03 1009.77 1009.43 1009.09 1008.83 1008.71 1008.76 1008.98 1009.33 1009.75 1010.19 1010.58 1010.89 1011.12 1011.26 1011.35 1011.44 1011.56 1011.72 1011.94 1012.20 1012.47 1012.73 1012.94 1013.12 1013.25 1013.37 1013.49 1013.63 1013.81 1014.02 1014.23 1014.44 1014.61 1014.73 1014.80 1014.84 1014.88 1014.94 1015.05 1015.21 1015.41 1015.64 1015.87 1016.07
1008.83 1009.26 1009.45 1009.43 1009.26 1008.99 1008.70 1008.46 1008.34 1008.37 1008.55 1008.86 1009.27 1009.72 1010.16 1010.54 1010.85 1011.08 1011.25 1011.39 1011.54 1011.70 1011.91 1012.14 1012.39 1012.64 1012.86 1013.03 1013.17 1013.29 1013.41 1013.55 1013.73 1013.95 1014.20 1014.44 1014.66 1014.82 1014.92 1014.96 1014.96 1014.97 1015.00 1015.09 1015.25 1015.46 1015.70 1015.94 1016.14
1008.36 1008.62 1008.67 1008.56 1008.35 1008.11 1007.91 1007.79 1007.81 1007.97 1008.26 1008.64 1009.08 1009.53 1009.96 1010.32 1010.63 1010.87 1011.08 1011.27 1011.47 1011.70 1011.96 1012.22 1012.49 1012.73 1012.93 1013.09 1013.21 1013.33 1013.46 1013.63 1013.84 1014.10 1014.37 1014.62 1014.84 1014.98 1015.06 1015.07 1015.04 1015.02 1015.03 1015.11 1015.27 1015.49 1015.75 1016.00 1016.22
1007.74 1007.87 1007.81 1007.65 1007.44 1007.25 1007.15 1007.16 1007.29 1007.56 1007.92 1008.34 1008.78 1009.21 1009.59 1009.94 1010.22 1010.48 1010.73 1010.98 1011.25 1011.54 1011.86 1012.17 1012.47 1012.73 1012.94 1013.10 1013.24 1013.37 1013.52 1013.71 1013.95 1014.21 1014.49 1014.74 1014.94 1015.07 1015.12 1015.10 1015.06 1015.02 1015.04 1015.14 1015.31 1015.56 1015.85 1016.13 1016.36
1007.15 1007.18 1007.06 1006.87 1006.69 1006.56 1006.55 1006.66 1006.88 1007.20 1007.59 1008.01 1008.42 1008.80 1009.14 1009.43 1009.71 1009.97 1010.24 1010.54 1010.87 1011.23 1011.61 1011.98 1012.32 1012.61 1012.86 1013.06 1013.23 1013.39 1013.57 1013.78 1014.02 1014.29 1014.55 1014.78 1014.95 1015.05 1015.08 1015.06 1015.02 1015.01 1015.05 1015.19 1015.41 1015.70 1016.03 1016.34 1016.61
1006.75 1006.72 1006.57 1006.38 1006.23 1006.17 1006.22 1006.39 1006.66 1006.99 1007.36 1007.73 1008.08 1008.39 1008.66 1008.91 1009.16 1009.41 1009.70 1010.03 1010.40 1010.80 1011.22 1011.64 1012.03 1012.38 1012.69 1012.94 1013.17 1013.37 1013.58 1013.80 1014.03 1014.28 1014.51 1014.70 1014.84 1014.92 1014.95 1014.94 1014.94 1014.97 1015.08 1015.28 1015.57 1015.92 1016.30 1016.67 1016.96
1006.67 1006.61 1006.45 1006.28 1006.17 1006.15 1006.23 1006.42 1006.68 1006.99 1007.30 1007.59 1007.85 1008.07 1008.27 1008.47 1008.67 1008.90 1009.18 1009.50 1009.88 1010.30 1010.74 1011.18 1011.62 1012.02 1012.39 1012.72 1013.00 1013.26 1013.50 1013.74 1013.96 1014.17 1014.35 1014.51 1014.62 1014.69 1014.73 1014.76 1014.82 1014.94 1015.13 1015.42 1015.78 1016.21 1016.65 1017.06 1017.39
1006.94 1006.86 1006.72 1006.57 1006.49 1006.49 1006.58 1006.75 1006.96 1007.18 1007.40 1007.58 1007.74 1007.88 1008.00 1008.14 1008.30 1008.49 1008.73 1009.02 1009.37 1009.76 1010.18 1010.63 1011.10 1011.55 1011.98 1012.37 1012.73 1013.05 1013.33 1013.57 1013.78 1013.96 1014.10 1014.22 1014.30 1014.38 1014.45 1014.54 1014.68 1014.89 1015.19 1015.56 1016.01 1016.50 1017.00 1017.45 1017.82
1007.46 1007.39 1007.27 1007.16 1007.10 1007.10 1007.18 1007.29 1007.42 1007.53 1007.63 1007.69 1007.74 1007.79 1007.84 1007.92 1008.03 1008.18 1008.37 1008.60 1008.89 1009.22 1009.60 1010.02 1010.48 1010.97 1011.45 1011.92 1012.35 1012.73 1013.05 1013.31 1013.51 1013.66 1013.77 1013.85 1013.93 1014.02 1014.13 1014.30 1014.53 1014.83 1015.22 1015.68 1016.20 1016.75 1017.28 1017.77 1018.17
1008.10 1008.04 1007.96 1007.88 1007.85 1007.86 1007.89 1007.93 1007.95 1007.93 1007.89 1007.83 1007.77 1007.72 1007.71 1007.74 1007.82 1007.92 1008.06 1008.22 1008.43 1008.69 1009.00 1009.38 1009.82 1010.32 1010.85 1011.38 1011.88 1012.32 1012.69 1012.97 1013.17 1013.30 1013.38 1013.45 1013.53 1013.64 1013.80 1014.03 1014.35 1014.74 1015.20 1015.73 1016.30 1016.87 1017.44 1017.95 1018.39
1008.65 1008.63 1008.60 1008.58 1008.59 1008.60 1008.60 1008.55 1008.44 1008.28 1008.08 1007.88 1007.70 1007.58 1007.52 1007.51 1007.55 1007.63 1007.72 1007.84 1007.97 1008.15 1008.39 1008.72 1009.14 1009.64 1010.21 1010.79 1011.36 1011.86 1012.27 1012.58 1012.78 1012.90 1012.98 1013.04 1013.12 1013.26 1013.46 1013.76 1014.14 1014.59 1015.11 1015.67 1016.26 1016.85 1017.42 1017.95 1018.42
1008.96 1009.00 1009.06 1009.13 1009.20 1009.23 1009.18 1009.04 1008.80 1008.47 1008.11 1007.75 1007.46 1007.25 1007.14 1007.11 1007.14 1007.21 1007.29 1007.37 1007.46 1007.58 1007.77 1008.06 1008.46 1008.97 1009.56 1010.19 1010.81 1011.37 1011.83 1012.16 1012.38 1012.50 1012.57 1012.63 1012.73 1012.89 1013.13 1013.46 1013.89 1014.38 1014.91 1015.48 1016.07 1016.65 1017.22 1017.76 1018.26
1008.95 1009.09 1009.27 1009.46 1009.62 1009.69 1009.61 1009.37 1008.98 1008.48 1007.93 1007.40 1006.97 1006.66 1006.50 1006.46 1006.50 1006.59 1006.68 1006.76 1006.85 1006.95 1007.13 1007.40 1007.79 1008.32 1008.94 1009.61 1010.28 1010.88 1011.38 1011.74 1011.98 1012.11 1012.18 1012.24 1012.35 1012.52 1012.79 1013.15 1013.59 1014.09 1014.63 1015.18 1015.74 1016.30 1016.85 1017.39 1017.93
1008.66 1008.93 1009.27 1009.62 1009.90 1010.01 1009.91 1009.57 1009.02 1008.32 1007.55 1006.83 1006.24 1005.82 1005.59 1005.53 1005.58 1005.71 1005.85 1005.98 1006.10 1006.24 1006.43 1006.72 1007.14 1007.69 1008.34 1009.05 1009.76 1010.40 1010.93 1011.32 1011.57 1011.71 1011.79 1011.86 1011.98 1012.16 1012.44 1012.81 1013.25 1013.74 1014.26 1014.79 1015.31 1015.83 1016.36 1016.90 1017.46
1008.20 1008.66 1009.20 1009.72 1010.13 1010.30 1010.17 1009.72 1008.99 1008.06 1007.07 1006.12 1005.34 1004.77 1004.45 1004.36 1004.43 1004.60 1004.81 1005.01 1005.21 1005.41 1005.66 1006.00 1006.47 1007.06 1007.75 1008.50 1009.24 1009.92 1010.47 1010.89 1011.16 1011.31 1011.40 1011.49 1011.60 1011.80 1012.08 1012.44 1012.88 1013.35 1013.84 1014.33 1014.82 1015.31 1015.82 1016.35 1016.92
1007.79 1008.45 1009.20 1009.91 1010.43 1010.65 1010.48 1009.91 1008.99 1007.82 1006.57 1005.38 1004.37 1003.64 1003.21 1003.06 1003.13 1003.34 1003.61 1003.90 1004.19 1004.49 1004.82 1005.24 1005.76 1006.41 1007.14 1007.92 1008.70 1009.40 1009.99 1010.42 1010.71 1010.89 1011.00 1011.10 1011.22 1011.42 1011.70 1012.07 1012.49 1012.94 1013.40 1013.86 1014.32 1014.78 1015.26 1015.79 1016.36
1007.58 1008.45 1009.40 1010.27 1010.90 1011.14 1010.91 1010.20 1009.07 1007.67 1006.15 1004.71 1003.48 1002.56 1001.99 1001.76 1001.80 1002.03 1002.36 1002.72 1003.10 1003.49 1003.92 1004.42 1005.01 1005.71 1006.49 1007.31 1008.11 1008.84 1009.45 1009.92 1010.24 1010.45 1010.58 1010.70 1010.85 1011.06 1011.34 1011.70 1012.10 1012.54 1012.98 1013.42 1013.85 1014.29 1014.76 1015.26 1015.82
1007.71 1008.75 1009.86 1010.85 1011.53 1011.75 1011.43 1010.57 1009.25 1007.62 1005.86 1004.18 1002.74 1001.64 1000.93 1000.60 1000.59 1000.80 1001.15 1001.57 1002.01 1002.48 1002.98 1003.55 1004.21 1004.96 1005.78 1006.63 1007.47 1008.23 1008.88 1009.38 1009.74 1009.98 1010.16 1010.31 1010.49 1010.72 1011.01 1011.36 1011.76 1012.19 1012.62 1013.04 1013.45 1013.87 1014.32 1014.80 1015.34
1008.17 1009.34 1010.54 1011.57 1012.24 1012.39 1011.96 1010.96 1009.46 1007.64 1005.69 1003.83 1002.21 1000.96 1000.13 999.69 999.60 999.77 1000.10 1000.53 1001.00 1001.51 1002.07 1002.69 1003.39 1004.18 1005.04 1005.92 1006.79 1007.59 1008.27 1008.82 1009.23 1009.53 1009.76 1009.96 1010.18 1010.43 1010.74 1011.09 1011.49 1011.90 1012.32 1012.74 1013.14 1013.54 1013.97 1014.43 1014.93
1008.89 1010.10 1011.30 1012.28 1012.87 1012.91 1012.36 1011.22 1009.59 1007.64 1005.59 1003.62 1001.90 1000.55 999.62 999.09 998.92 999.02 999.30 999.69 1000.15 1000.66 1001.23 1001.87 1002.61 1003.42 1004.31 1005.22 1006.11 1006.94 1007.67 1008.27 1008.75 1009.11 1009.41 1009.67 1009.93 1010.22 1010.54 1010.91 1011.30 1011.71 1012.12 1012.52 1012.91 1013.31 1013.71 1014.14 1014.60
1009.71 1010.86 1011.95 1012.80 1013.24 1013.14 1012.45 1011.21 1009.52 1007.54 1005.47 1003.49 1001.76 1000.39 999.41 998.82 998.57 998.58 998.78 999.10 999.51 999.99 1000.54 1001.18 1001.92 1002.75 1003.65 1004.58 1005.50 1006.37 1007.14 1007.79 1008.33 1008.77 1009.13 1009.45 1009.77 1010.09 1010.44 1010.82 1011.21 1011.61 1012.01 1012.39 1012.78 1013.15 1013.54 1013.94 1014.36
1010.43 1011.42 1012.33 1012.96 1013.19 1012.92 1012.12 1010.83 1009.15 1007.24 1005.26 1003.38 1001.75 1000.43 999.47 998.85 998.54 998.47 998.58 998.81 999.14 999.56 1000.07 1000.69 1001.41 1002.24 1003.14 1004.08 1005.02 1005.91 1006.72 1007.42 1008.02 1008.52 1008.95 1009.33 1009.70 1010.06 1010.43 1010.81 1011.20 1011.59 1011.97 1012.34 1012.71 1013.07 1013.44 1013.81 1014.20
1010.91 1011.68 1012.31 1012.68 1012.67 1012.24 1011.35 1010.06 1008.48 1006.71 1004.93 1003.25 1001.79 1000.60 999.71 999.11 998.77 998.62 998.63 998.77 999.02 999.37 999.83 1000.42 1001.13 1001.94 1002.84 1003.78 1004.73 1005.63 1006.46 1007.19 1007.82 1008.38 1008.86 1009.29 1009.70 1010.09 1010.49 1010.87 1011.26 1011.63 1011.99 1012.34 1012.69 1013.04 1013.38 1013.73 1014.09
Thickness
5816 5813 5808 5796 5776 5755 5748 5758 5766 5766 5766 5772 5774 5770 5761 5755 5749 5746 5766 5775 5775 5774 5774 5774 5775 5775 5775 5776 5776 5777 5777 5777 5777 5777 5776 5776 5775 5774 5773 5772 5772 5770 5769 5768 5767 5766 5764 5763 5761
5818 5813 5803 5787 5761 5739 5746 5763 5765 5768 5773 5777 5776 5771 5763 5759 5765 5765 5769 5774 5775 5774 5774 5774 5774 5774 5774 5774 5775 5775 5775 5775 5775 5775 5774 5773 5773 5772 5772 5771 5770 5769 5768 5767 5766 5764 5763 5762 5760
5819 5814 5794 5776 5757 5746 5753 5767 5770 5776 5781 5778 5772 5771 5766 5762 5767 5769 5773 5775 5775 5774 5773 5773 5773 5772 5773 5773 5773 5773 5773 5773 5773 5773 5772 5772 5771 5770 5770 5769 5768 5767 5766 5765 5764 5762 5761 5760 5759
5816 5804 5790 5771 5760 5766 5770 5773 5777 5776 5778 5779 5773 5765 5768 5774 5774 5775 5777 5776 5774 5773 5772 5772 5772 5771 5771 5771 5772 5772 5772 5772 5771 5771 5770 5770 5770 5769 5768 5767 5766 5765 5764 5763 5762 5761 5760 5758 5757
5814 5795 5774 5761 5765 5775 5781 5783 5782 5775 5773 5775 5772 5761 5762 5774 5779 5778 5776 5775 5772 5771 5771 5771 5770 5770 5770 5770 5770 5771 5771 5771 5770 5770 5769 5769 5768 5767 5766 5765 5764 5764 5763 5762 5761 5760 5758 5757 5756
5802 5788 5762 5755 5766 5776 5782 5787 5783 5775 5774 5775 5771 5762 5762 5774 5776 5776 5776 5774 5772 5771 5770 5770 5769 5769 5769 5768 5769 5770 5770 5770 5770 5770 5769 5768 5767 5766 5765 5764 5763 5762 5761 5761 5760 5758 5757 5756 5755
5796 5781 5766 5765 5767 5772 5781 5788 5781 5775 5773 5775 5776 5762 5763 5770 5775 5776 5775 5773 5772 5770 5769 5769 5768 5768 5768 5768 5768 5768 5769 5769 5769 5769 5768 5767 5766 5764 5763 5762 5762 5761 5760 5759 5758 5757 5756 5755 5754
5807 5786 5771 5768 5769 5773 5787 5789 5787 5782 5777 5786 5782 5765 5762 5771 5776 5775 5773 5772 5770 5769 5768 5768 5768 5767 5767 5767 5767 5767 5768 5768 5768 5767 5766 5766 5764 5763 5762 5761 5761 5760 5759 5758 5757 5755 5755 5753 5752
5812 5780 5766 5774 5775 5781 5791 5787 5789 5793 5786 5785 5785 5779 5778 5779 5777 5772 5769 5768 5767 5768 5767 5767 5767 5767 5766 5766 5766 5766 5767 5767 5766 5766 5765 5764 5763 5761 5761 5760 5759 5759 5758 5757 5755 5754 5753 5751 5750
5801 5775 5781 5794 5795 5792 5793 5790 5789 5785 5778 5778 5779 5781 5782 5779 5774 5769 5766 5765 5764 5765 5766 5767 5766 5766 5766 5766 5765 5766 5766 5765 5765 5765 5764 5763 5762 5760 5759 5759 5759 5758 5757 5756 5754 5753 5751 5750 5748
5804 5791 5799 5804 5807 5803 5795 5793 5794 5783 5774 5778 5777 5778 5779 5776 5773 5770 5768 5767 5767 5767 5767 5767 5767 5766 5766 5765 5765 5765 5765 5765 5765 5764 5763 5762 5760 5759 5758 5758 5757 5756 5755 5754 5752 5751 5749 5748 5747
5806 5805 5809 5809 5811 5805 5798 5795 5791 5788 5787 5794 5791 5787 5781 5776 5773 5771 5769 5769 5769 5768 5768 5768 5768 5767 5766 5765 5765 5765 5765 5765 5764 5764 5763 5761 5760 5759 5757 5757 5756 5755 5753 5752 5750 5749 5748 5747 5746
5807 5807 5813 5813 5810 5806 5802 5795 5792 5791 5797 5798 5793 5787 5782 5778 5776 5775 5774 5772 5771 5769 5769 5769 5769 5768 5767 5766 5765 5765 5765 5764 5764 5764 5763 5761 5760 5758 5757 5756 5755 5754 5752 5750 5749 5748 5746 5745 5744
5810 5810 5809 5809 5807 5806 5797 5794 5793 5792 5798 5794 5789 5785 5783 5781 5779 5777 5775 5773 5772 5772 5771 5771 5770 5769 5768 5767 5766 5765 5765 5765 5764 5764 5763 5761 5760 5759 5757 5756 5755 5753 5752 5750 5748 5747 5745 5743 5742
5814 5803 5800 5803 5804 5803 5798 5785 5789 5796 5796 5790 5788 5786 5784 5783 5781 5779 5778 5777 5776 5775 5774 5772 5772 5771 5769 5768 5767 5766 5765 5765 5764 5763 5762 5761 5760 5758 5757 5756 5754 5753 5751 5749 5747 5745 5744 5742 5741
5804 5789 5779 5794 5801 5801 5790 5772 5791 5798 5794 5788 5787 5787 5785 5784 5783 5783 5783 5781 5779 5777 5775 5774 5774 5772 5770 5769 5768 5767 5766 5765 5764 5763 5762 5761 5760 5758 5757 5755 5754 5752 5750 5748 5746 5745 5742 5740 5739
5782 5771 5773 5786 5800 5798 5788 5778 5792 5798 5794 5788 5788 5788 5786 5784 5785 5786 5786 5784 5782 5780 5777 5775 5774 5773 5771 5770 5768 5767 5766 5765 5764 5763 5761 5761 5759 5758 5756 5755 5753 5752 5750 5748 5746 5743 5742 5739 5737
5771 5772 5775 5778 5794 5794 5785 5783 5792 5796 5794 5790 5789 5788 5787 5786 5787 5789 5788 5787 5784 5782 5779 5777 5776 5774 5773 5771 5768 5767 5766 5765 5764 5763 5762 5761 5760 5758 5756 5754 5752 5751 5749 5746 5745 5742 5740 5738 5736
5788 5780 5776 5784 5799 5791 5783 5782 5788 5793 5792 5790 5788 5788 5788 5789 5792 5792 5791 5789 5786 5783 5780 5778 5776 5775 5774 5771 5768 5765 5764 5764 5764 5763 5762 5761 5759 5758 5756 5754 5752 5750 5748 5746 5744 5741 5738 5735 5734
5788 5778 5777 5786 5796 5790 5780 5780 5789 5794 5794 5794 5792 5791 5791 5790 5790 5791 5791 5790 5788 5786 5783 5781 5778 5777 5775 5773 5771 5769 5767 5765 5764 5763 5762 5761 5759 5757 5756 5754 5752 5750 5747 5745 5743 5740 5736 5734 5733
5783 5779 5779 5780 5787 5787 5780 5773 5780 5790 5796 5797 5797 5797 5796 5794 5792 5791 5791 5790 5789 5787 5785 5784 5781 5779 5777 5775 5772 5769 5766 5764 5762 5761 5760 5760 5759 5758 5756 5754 5752 5749 5747 5744 5742 5740 5737 5732 5731
5775 5791 5789 5784 5771 5759 5770 5748 5771 5781 5786 5792 5795 5797 5797 5798 5797 5795 5793 5792 5791 5791 5789 5786 5783 5780 5778 5776 5772 5768 5764 5760 5761 5760 5760 5760 5758 5757 5756 5753 5751 5749 5747 5744 5742 5740 5737 5734 5730
5788 5796 5788 5781 5768 5756 5759 5750 5761 5776 5777 5788 5795 5799 5801 5802 5800 5798 5797 5797 5796 5795 5792 5788 5784 5781 5779 5776 5773 5769 5766 5763 5761 5760 5758 5757 5756 5756 5754 5753 5751 5748 5746 5744 5742 5740 5737 5734 5732
5796 5786 5775 5763 5753 5739 5751 5747 5754 5769 5782 5791 5798 5802 5804 5804 5803 5801 5801 5799 5797 5796 5793 5789 5785 5781 5779 5776 5774 5770 5767 5764 5760 5758 5756 5755 5754 5754 5753 5752 5750 5748 5746 5744 5742 5740 5737 5735 5733
5786 5760 5737 5733 5724 5731 5752 5749 5758 5787 5798 5801 5802 5804 5807 5806 5803 5801 5799 5798 5796 5795 5793 5790 5786 5782 5779 5776 5773 5771 5768 5765 5761 5758 5756 5754 5752 5752 5752 5751 5749 5747 5745 5743 5742 5739 5737 5735 5733
5774 5764 5735 5723 5720 5730 5747 5746 5771 5797 5806 5809 5809 5808 5807 5806 5804 5803 5802 5800 5798 5797 5794 5791 5786 5782 5780 5777 5774 5772 5769 5765 5762 5759 5757 5754 5753 5752 5751 5750 5748 5747 5745 5743 5741 5739 5737 5735 5733
5767 5759 5762 5738 5732 5727 5735 5753 5777 5797 5800 5804 5805 5804 5804 5805 5804 5803 5803 5802 5800 5797 5795 5792 5788 5783 5780 5778 5774 5771 5769 5765 5762 5760 5758 5755 5753 5752 5750 5748 5747 5745 5744 5742 5740 5738 5735 5733 5731
5778 5763 5744 5732 5718 5716 5734 5745 5758 5782 5790 5796 5799 5800 5803 5804 5804 5803 5803 5802 5801 5799 5797 5793 5789 5785 5782 5778 5775 5772 5768 5766 5763 5760 5757 5755 5753 5751 5749 5747 5745 5743 5741 5740 5738 5735 5734 5731 5729
5763 5755 5742 5729 5729 5717 5717 5740 5782 5786 5793 5794 5797 5801 5802 5802 5803 5804 5804 5803 5801 5799 5796 5792 5789 5784 5781 5778 5774 5771 5768 5765 5762 5759 5758 5755 5753 5750 5748 5745 5743 5741 5739 5737 5734 5732 5730 5728 5725
5767 5756 5743 5732 5725 5721 5721 5742 5793 5793 5796 5796 5798 5800 5802 5803 5802 5802 5803 5801 5798 5796 5793 5791 5788 5784 5781 5778 5774 5770 5767 5763 5760 5758 5756 5754 5751 5749 5746 5744 5741 5739 5736 5734 5732 5729 5727 5725 5722